Regional Weather Roundup
Issued by NWS

Home | Current Version | Previous Version | Graphics & Text | Print | Product List | Glossary Off
Versions: 1 2 3 4 5 6 7 8 9 10 11 12 13 14 15 16 17 18 19 20 21 22 23 24 25 26 27 28 29 30 31 32 33 34 35 36 37 38 39 40 41 42 43 44 45 46 47 48 49 50

000
ASUS43 KFSD 190610
RWRSD

WEATHER ROUNDUP FOR SOUTH DAKOTA
NATIONAL WEATHER SERVICE SIOUX FALLS SD
100 AM CDT FRI SEP 19 2014

NOTE: "FAIR" INDICATES FEW OR NO CLOUDS BELOW 12,000 FEET WITH NO
SIGNIFICANT WEATHER AND/OR OBSTRUCTIONS TO VISIBILITY.


SDZ001>005-009-010-012>017-190700-
NORTHWEST AND NORTH CENTRAL SOUTH DAKOTA

CITY           SKY/WX    TMP DP  RH WIND       PRES   REMARKS
BUFFALO          N/A     68  54  60 W13       29.71S
FAITH            N/A     70  61  73 S21G26    29.70R
MOBRIDGE       CLOUDY    66  61  84 SE15      29.67F
$$

SDZ012>016-024>037-041>051-057-063-072>074-190700-
SOUTHWEST AND SOUTH CENTRAL SOUTH DAKOTA

CITY           SKY/WX    TMP DP  RH WIND       PRES   REMARKS
RAPID CTY ARPT MOCLDY    69  58  67 NW13G22   29.73R
PIERRE         MOCLDY    66  61  84 SE13      29.70F
CUSTER         PTCLDY    68  47  46 VRB5      29.90S
ELLSWORTH AFB  CLOUDY    72  57  60 N25G38    29.75R
PHILIP         MOCLDY    65  61  87 SE6       29.67F
PINE RIDGE     PTCLDY    68  61  78 S21G28    29.77S
WINNER         FAIR      68  62  81 S22G30    29.75F
$$

SDZ004>011-016>023-039-040-190700-
NORTHEAST SOUTH DAKOTA

CITY           SKY/WX    TMP DP  RH WIND       PRES   REMARKS
ABERDEEN       MOCLDY    66  57  72 S17G25    29.76F
WATERTOWN      PTCLDY    61  55  81 S17G26    29.83S
SISSETON         N/A     61  56  83 S9        29.79S
$$

SDZ017-020-022-023-036>040-048>070-190700-
SOUTHEAST SOUTH DAKOTA

CITY           SKY/WX    TMP DP  RH WIND       PRES   REMARKS
SIOUX FALLS    CLOUDY    63  54  72 S15G28    29.90F
HURON          CLOUDY    66  57  72 S14G23    29.79F
CHAMBERLAIN    MOCLDY    62  61  94 S9        29.77F
MITCHELL       CLOUDY    66  58  75 S17G29    29.82F
YANKTON        CLEAR     63  55  77 SE13      29.89F
$$

ABBREVIATIONS USED IN REMARKS
   TC - TEMPERATURE IN CELSIUS
  WCI - WIND CHILL INDEX
   HX - HEAT INDEX
  VSB - VISIBILITY



USA.gov is the U.S. government's official web portal to all federal, state and local government web resources and services.